Regional Weather Roundup
Issued by NWS Little Rock, AR

Home | Current Version | Previous Version | Graphics & Text | Print | Product List | Glossary On
Versions: 1 2 3 4 5 6 7 8 9 10 11 12 13 14 15 16 17 18 19 20 21 22 23 24 25 26 27 28 29 30 31 32 33 34 35 36 37 38 39 40 41 42 43 44 45 46 47 48 49 50
000
ASUS44 KLZK 070405
RWRLZK

WEATHER ROUNDUP FOR ARKANSAS
NATIONAL WEATHER SERVICE LITTLE ROCK AR
1000 PM CST SAT FEB 06 2016

NOTE: "FAIR" INDICATES FEW OR NO CLOUDS BELOW 12,000 FEET WITH NO
SIGNIFICANT WEATHER AND/OR OBSTRUCTIONS TO VISIBILITY.

ARZ001-003-010-029-070500-
NORTHWEST ARKANSAS

CITY           SKY/WX    TMP DP  RH WIND       PRES   REMARKS
FAYETTEVILLE   CLEAR     33  25  72 S7        30.25S WCI  27
FORT SMITH     CLEAR     40  24  53 CALM      30.28S
HARRISON       CLEAR     42  22  44 SW5       30.23F
BENTONVILLE    CLEAR     39  25  56 S5        30.25S
ROGERS         CLEAR     39  27  62 S7        30.24F
SILOAM SPGS    CLEAR     39  23  52 S6        30.25S
HIGHFILL       CLEAR     39  29  67 SW6       30.24S
$$

ARZ004-005-016-070500-
NORTH CENTRAL ARKANSAS

CITY           SKY/WX    TMP DP  RH WIND       PRES   REMARKS
BATESVILLE     CLEAR     45  19  36 S3        30.29F
FLIPPIN        CLEAR     41  18  38 SW8       30.23S
MTN HOME       CLEAR     40  18  41 S6        30.23F
$$

ARZ040-041-070500-
WEST CENTRAL ARKANSAS

CITY           SKY/WX    TMP DP  RH WIND       PRES   REMARKS
MENA           CLEAR     32  28  86 CALM      30.28F
MOUNT IDA      CLEAR     31  24  75 CALM      30.27F
$$

ARZ009-017-025-026-028-070500-
NORTHEAST ARKANSAS

CITY           SKY/WX    TMP DP  RH WIND       PRES   REMARKS
CORNING        FAIR      39  25  56 S8        30.28F
JONESBORO      CLEAR     33  25  72 CALM      30.29F
NEWPORT        CLEAR     36  26  67 S5        30.30F
WALNUT RIDGE   CLEAR     36  25  64 S9        30.29R
BLYTHEVILLE    CLEAR     38  28  67 S5        30.30F
$$

ARZ022-023-033-042-044-070500-
CENTRAL ARKANSAS

CITY           SKY/WX    TMP DP  RH WIND       PRES   REMARKS
LITTLE ROCK    CLEAR     39  26  59 CALM      30.31F
N LITTLE ROCK  CLEAR     43  24  47 SW5       30.31F
JACKSONVILLE   CLEAR     32  24  73 CALM      30.29F
SEARCY         CLEAR     32  27  80 CALM      30.32S
HOT SPRINGS    CLEAR     36  23  59 CALM      30.31F
RUSSELLVILLE   CLEAR     32  22  66 CALM      30.28F
CLINTON        FAIR      28  25  86 CALM      30.30S
$$

ARZ036-070500-
EAST ARKANSAS

CITY           SKY/WX    TMP DP  RH WIND       PRES   REMARKS
WEST MEMPHIS   CLEAR     34  30  85 S3        30.30F
$$

ARZ050-053-066-070-073-070500-
SOUTHWEST ARKANSAS

CITY           SKY/WX    TMP DP  RH WIND       PRES   REMARKS
ARKADELPHIA    FAIR      33  31  93 CALM      30.32F
CAMDEN         CLEAR     32  27  80 CALM      30.32F
TEXARKANA      CLEAR     41  30  65 SW6       30.32F
EL DORADO      CLEAR     36  27  69 CALM      30.32F
DE QUEEN       CLEAR     32  30  92 CALM      30.30F
$$

ARZ056-057-069-070500-
SOUTHEAST ARKANSAS

CITY           SKY/WX    TMP DP  RH WIND       PRES   REMARKS
PINE BLUFF     CLEAR     37  28  70 CALM      30.32S
STUTTGART      CLEAR     43  28  56 S6        30.32S
MONTICELLO     CLEAR     35  26  69 CALM      30.32S

$$





USA.gov is the U.S. government's official web portal to all federal, state and local government web resources and services.